LEO VANTAGE 1 (43113 NORAD) Tracking and Keplerian Element Data

This shows tracking and keplerian element data for the satellite.

Feedback or suggestion? Click here.




ElementValue
Catalog43113
NameLEO VANTAGE 1
Epoch Orbit18631
Epoch Day268.59435853
Epoch Year2021
RAAN324.7405
Inclination99.2978
Eccentricity0.0114647
Argument of Perigee238.8307
Mean Anonmoly120.1571
Mean Motion13.93050172
Decay Rate-1.01E-06
L11 43113U 18004C 21268.59435853 -.00000101 00000-0 -39599-4 0 9999
L22 43113 99.2978 324.7405 0114647 238.8307 120.1571 13.93050172186314

Live tracking and technical data element details for LEO VANTAGE 1 (NORAD 43113). LEO VANTAGE 1 can be tracked NOW for your location showing map with azimuth and elevation plus other details from your city location.

Track the satellite on the map from your city or location and see movement details for azimuth, elevation, latitude, longitude, range, height, and movement on the map or in text.







IsCatalogInMostPopularTable: catalog: 43113, numindb: 595
Update: records affected: 1



GetName: 43113 LEO VANTAGE 1

Hit Count: updated at: Tue, 28 Sep 2021 16:54:39 GMT